This demonstration page uses our WeatherBlox Daily Observations layout. Learn more.

Left ArrowRight Arrow

44.89941, -97.11507

Hourly Observations for December 1, 2016

Temp ( °F °C ) Dew Point ( °F °C ) Humidity (%) Winds ( mph kmh ) Pressure ( in mb ) Visibility ( mi km ) Precip ( " mm )
12:53 am 00:53 Cloudy 30 -1.1 27 -2.8 88 88 NNW 14 22 29.83 1010 10 16 0.00 0.00
1:53 am 01:53 Cloudy 30 -1.1 27 -2.8 88 88 NNW 17 28 29.85 1011 10 16 0.00 0.00
2:53 am 02:53 Cloudy 30 -1.1 28 -2.2 92 92 NW 12 19 29.87 1011 7 11 0.00 0.00
3:36 am 03:36 Cloudy 30 -1.1 28 -2.2 92 92 NW 14 22 29.91 1013 10 16 0.00 0.00
3:51 am 03:51 Cloudy 30 -1 28 -2 93 93 NW 13 20 29.91 1013 10 16 0.00 0.00
3:53 am 03:53 Cloudy 30 -1.1 28 -2.2 92 92 NW 12 19 29.87 1012 10 16 0.00 0.00
4:00 am 04:00 Cloudy 30 -1.1 28 -2.2 92 92 NW 16 26 29.91 1013 10 16 0.00 0.00
4:53 am 04:53 Cloudy 30 -1.1 28 -2.2 92 92 NW 15 24 29.89 1012 10 16 0.00 0.00
5:53 am 05:53 Cloudy 30 -1.1 28 -2.2 92 92 NNW 15 24 29.90 1013 10 16 0.00 0.00
6:53 am 06:53 Cloudy 30 -1.1 28 -2.2 92 92 NNW 13 20 29.92 1013 10 16 0.00 0.00
7:16 am 07:16 Cloudy 30 -1.1 28 -2.2 92 92 NNW 10 17 29.94 1014 10 16 0.00 0.00
7:24 am 07:24 Cloudy 30 -1.1 28 -2.2 92 92 NNW 10 17 29.94 1014 10 16 0.00 0.00
7:53 am 07:53 Cloudy 30 -1.1 28 -2.2 92 92 NW 12 19 29.93 1014 10 16 0.00 0.00
8:11 am 08:11 Cloudy 30 -1.1 28 -2.2 92 92 NW 13 20 29.97 1015 10 16 0.00 0.00
8:49 am 08:49 Cloudy 30 -1 28 -2 93 93 NW 9 15 29.97 1015 10 16 0.00 0.00
8:53 am 08:53 Cloudy 30 -1.1 28 -2.2 92 92 NW 12 19 29.95 1014 10 16 0.00 0.00
9:53 am 09:53 Cloudy 30 -1.1 28 -2.2 92 92 NNW 13 20 29.96 1015 10 16 0.00 0.00
10:53 am 10:53 Cloudy 31 -0.6 29 -1.7 92 92 NNW 9 15 29.98 1015 10 16 0.00 0.00
11:53 am 11:53 Cloudy 32 0 29 -1.7 88 88 N 8 13 29.98 1015 10 16 0.00 0.00
12:19 pm 12:19 Cloudy 32 0 29 -1.7 88 88 NNW 7 11 30.00 1016 10 16 0.00 0.00
12:28 pm 12:28 Cloudy 32 0 29 -1.7 88 88 N 8 13 30.00 1016 10 16 0.00 0.00
12:48 pm 12:48 Cloudy 32 0 28 -2 87 87 NNW 6 9 30.00 1016 10 16 0.00 0.00
12:53 pm 12:53 Cloudy 32 0 29 -1.7 88 88 NNW 7 11 29.97 1015 10 16 0.00 0.00
1:15 pm 13:15 Cloudy 31 -0.6 28 -2.2 89 89 NW 8 13 30.00 1016 10 16 0.00 0.00
1:39 pm 13:39 Cloudy 31 -0.6 29 -1.7 92 92 NNW 9 15 30.00 1016 10 16 0.00 0.00
1:53 pm 13:53 Cloudy 32 0 28 -2.2 85 85 NW 7 11 29.98 1015 10 16 0.00 0.00
2:53 pm 14:53 Cloudy 31 -0.6 29 -1.7 92 92 NW 10 17 29.99 1016 10 16 0.00 0.03
3:53 pm 15:53 Cloudy 31 -0.6 28 -2.2 89 89 NNW 9 15 30.01 1016 10 16 0.00 0.00
4:37 pm 16:37 Cloudy 31 -0.6 28 -2.2 89 89 N 8 13 30.06 1018 10 16 0.00 0.00
4:53 pm 16:53 Cloudy 31 -0.6 27 -2.8 85 85 N 7 11 30.02 1017 10 16 0.00 0.00
5:53 pm 17:53 Cloudy 30 -1.1 27 -2.8 88 88 NNW 10 17 30.03 1017 10 16 0.00 0.00
6:40 pm 18:40 Cloudy 30 -1.1 28 -2.2 92 92 N 9 15 30.06 1018 10 16 0.00 0.00
6:53 pm 18:53 Cloudy 30 -1.1 27 -2.8 88 88 NNW 10 17 30.05 1018 10 16 0.00 0.00
7:08 pm 19:08 Cloudy 30 -1.1 27 -2.8 88 88 N 12 19 30.06 1018 10 16 0.00 0.00
7:53 pm 19:53 Cloudy 29 -1.7 26 -3.3 89 89 N 9 15 30.06 1018 10 16 0.00 0.00
8:53 pm 20:53 Cloudy 28 -2.2 24 -4.4 85 85 N 10 17 30.08 1019 10 16 0.00 0.00
9:53 pm 21:53 Cloudy 27 -2.8 24 -4.4 89 89 N 8 13 30.09 1019 10 16 0.00 0.00
10:06 pm 22:06 Cloudy 27 -2.8 24 -4.4 89 89 N 9 15 30.12 1020 10 16 0.00 0.00
10:53 pm 22:53 Cloudy 27 -2.8 24 -4.4 89 89 N 9 15 30.11 1020 10 16 0.00 0.00
11:53 pm 23:53 Cloudy 26 -3.3 23 -5 88 88 N 9 15 30.12 1020 10 16 0.00 0.00

Powered by Vaisala Xweather